Time,TemperatureF,DewpointF,PressureIn,WindDirection,WindDirectionDegrees,WindSpeedMPH,WindSpeedGustMPH,Humidity,HourlyPrecipIn,Conditions,Clouds,dailyrainin,SoftwareType,DateUTC
2013-09-13 00:04:00,64.7,65.6,29.71,North,-999,-999.0,-999.0,103,0.00,,,0.00,tws,2013-09-13 04:04:00,
2013-09-13 00:09:00,64.7,65.5,29.70,North,-999,-999.0,-999.0,102,0.00,,,0.00,tws,2013-09-13 04:09:00,
2013-09-13 00:14:00,64.6,65.4,29.70,North,-999,-999.0,-999.0,102,0.00,,,0.00,tws,2013-09-13 04:14:00,
2013-09-13 00:19:00,64.4,65.2,29.70,North,-999,-999.0,-999.0,102,0.00,,,0.00,tws,2013-09-13 04:19:00,
2013-09-13 00:24:00,64.3,65.1,29.70,North,-999,-999.0,-999.0,102,0.00,,,0.00,tws,2013-09-13 04:24:00,
2013-09-13 00:29:00,64.1,64.8,29.69,North,-999,-999.0,-999.0,102,0.00,,,0.00,tws,2013-09-13 04:29:00,
2013-09-13 00:34:00,63.9,64.7,29.70,North,-999,-999.0,-999.0,102,0.00,,,0.00,tws,2013-09-13 04:34:00,
2013-09-13 00:39:00,63.8,64.6,29.70,North,-999,-999.0,-999.0,102,0.00,,,0.00,tws,2013-09-13 04:39:00,
2013-09-13 00:44:00,63.8,64.6,29.69,North,-999,-999.0,-999.0,102,0.00,,,0.00,tws,2013-09-13 04:44:00,
2013-09-13 00:49:00,63.8,64.5,29.70,North,-999,-999.0,-999.0,102,0.00,,,0.00,tws,2013-09-13 04:49:00,
2013-09-13 00:54:00,63.7,64.5,29.70,North,-999,-999.0,-999.0,102,0.00,,,0.00,tws,2013-09-13 04:54:00,
2013-09-13 00:59:00,63.7,64.6,29.69,North,-999,-999.0,-999.0,103,0.00,,,0.00,tws,2013-09-13 04:59:00,
2013-09-13 01:04:00,63.8,64.6,29.69,North,-999,-999.0,-999.0,102,0.00,,,0.00,tws,2013-09-13 05:04:00,
2013-09-13 01:09:00,63.8,64.7,29.69,North,-999,-999.0,-999.0,103,0.00,,,0.00,tws,2013-09-13 05:09:00,
2013-09-13 01:14:00,63.9,64.8,29.69,North,-999,-999.0,-999.0,103,0.00,,,0.00,tws,2013-09-13 05:14:00,
2013-09-13 01:19:00,64.0,64.8,29.69,North,-999,-999.0,-999.0,103,0.00,,,0.00,tws,2013-09-13 05:19:00,
2013-09-13 01:24:00,63.9,64.8,29.69,North,-999,-999.0,-999.0,103,0.00,,,0.00,tws,2013-09-13 05:24:00,
2013-09-13 01:29:00,63.9,64.8,29.68,North,-999,-999.0,-999.0,103,0.00,,,0.00,tws,2013-09-13 05:29:00,
2013-09-13 01:34:00,63.9,64.8,29.68,North,-999,-999.0,-999.0,103,0.00,,,0.00,tws,2013-09-13 05:34:00,
2013-09-13 01:39:00,64.0,64.8,29.68,North,-999,-999.0,-999.0,103,0.00,,,0.00,tws,2013-09-13 05:39:00,
2013-09-13 01:44:00,64.0,64.8,29.68,North,-999,-999.0,-999.0,103,0.00,,,0.00,tws,2013-09-13 05:44:00,
2013-09-13 01:49:00,64.0,64.8,29.68,North,-999,-999.0,-999.0,103,0.00,,,0.00,tws,2013-09-13 05:49:00,
2013-09-13 01:54:00,64.0,64.8,29.68,North,-999,-999.0,-999.0,103,0.00,,,0.00,tws,2013-09-13 05:54:00,
2013-09-13 01:59:00,64.0,64.8,29.68,North,-999,-999.0,-999.0,103,0.00,,,0.00,tws,2013-09-13 05:59:00,
2013-09-13 02:04:00,64.0,64.9,29.68,North,-999,-999.0,-999.0,103,0.00,,,0.00,tws,2013-09-13 06:04:00,
2013-09-13 02:09:00,64.0,64.9,29.67,North,-999,-999.0,-999.0,103,0.00,,,0.00,tws,2013-09-13 06:09:00,
2013-09-13 02:14:00,64.0,64.9,29.67,North,-999,-999.0,-999.0,103,0.00,,,0.00,tws,2013-09-13 06:14:00,
2013-09-13 02:19:00,64.0,64.8,29.67,North,-999,-999.0,-999.0,102,0.00,,,0.00,tws,2013-09-13 06:19:00,
2013-09-13 02:24:00,64.0,64.9,29.67,North,-999,-999.0,-999.0,103,0.00,,,0.00,tws,2013-09-13 06:24:00,
2013-09-13 02:29:00,64.0,64.9,29.67,North,-999,-999.0,-999.0,103,0.00,,,0.00,tws,2013-09-13 06:29:00,
2013-09-13 02:34:00,64.1,64.9,29.67,North,-999,-999.0,-999.0,103,0.00,,,0.00,tws,2013-09-13 06:34:00,
2013-09-13 02:39:00,64.1,64.9,29.67,North,-999,-999.0,-999.0,103,0.00,,,0.00,tws,2013-09-13 06:39:00,
2013-09-13 02:44:00,64.1,64.9,29.66,North,-999,-999.0,-999.0,103,0.00,,,0.00,tws,2013-09-13 06:44:00,
2013-09-13 02:49:00,64.1,64.9,29.66,North,-999,-999.0,-999.0,103,0.00,,,0.00,tws,2013-09-13 06:49:00,
2013-09-13 02:54:00,64.1,64.9,29.66,North,-999,-999.0,-999.0,103,0.00,,,0.00,tws,2013-09-13 06:54:00,
2013-09-13 02:59:00,64.1,64.9,29.66,North,-999,-999.0,-999.0,103,0.00,,,0.00,tws,2013-09-13 06:59:00,
2013-09-13 03:04:00,64.1,64.9,29.65,North,-999,-999.0,-999.0,103,0.00,,,0.00,tws,2013-09-13 07:04:00,
2013-09-13 03:09:00,64.1,64.9,29.65,North,-999,-999.0,-999.0,103,0.00,,,0.00,tws,2013-09-13 07:09:00,
2013-09-13 03:14:00,64.1,64.9,29.65,North,-999,-999.0,-999.0,103,0.00,,,0.00,tws,2013-09-13 07:14:00,
2013-09-13 03:19:00,64.0,64.9,29.65,North,-999,-999.0,-999.0,103,0.00,,,0.00,tws,2013-09-13 07:19:00,
2013-09-13 03:24:00,64.0,64.8,29.65,North,-999,-999.0,-999.0,103,0.00,,,0.00,tws,2013-09-13 07:24:00,
2013-09-13 03:29:00,64.0,64.8,29.65,North,-999,-999.0,-999.0,103,0.00,,,0.00,tws,2013-09-13 07:29:00,
2013-09-13 03:34:00,63.9,64.8,29.66,North,-999,-999.0,-999.0,103,0.00,,,0.00,tws,2013-09-13 07:34:00,
2013-09-13 03:39:00,63.8,64.7,29.65,North,-999,-999.0,-999.0,103,0.00,,,0.00,tws,2013-09-13 07:39:00,
2013-09-13 03:44:00,63.7,64.5,29.65,North,-999,-999.0,-999.0,103,0.00,,,0.00,tws,2013-09-13 07:44:00,
2013-09-13 03:49:00,63.5,64.4,29.64,North,-999,-999.0,-999.0,103,0.00,,,0.00,tws,2013-09-13 07:49:00,
2013-09-13 03:54:00,63.4,64.3,29.65,North,-999,-999.0,-999.0,103,0.00,,,0.00,tws,2013-09-13 07:54:00,
2013-09-13 03:59:00,63.3,64.2,29.64,North,-999,-999.0,-999.0,103,0.00,,,0.00,tws,2013-09-13 07:59:00,
2013-09-13 04:04:00,63.2,64.1,29.64,North,-999,-999.0,-999.0,103,0.00,,,0.00,tws,2013-09-13 08:04:00,
2013-09-13 04:09:00,63.1,64.0,29.64,North,-999,-999.0,-999.0,103,0.00,,,0.00,tws,2013-09-13 08:09:00,
2013-09-13 04:14:00,62.9,63.9,29.64,North,-999,-999.0,-999.0,103,0.00,,,0.00,tws,2013-09-13 08:14:00,
2013-09-13 04:19:00,62.9,63.7,29.64,North,-999,-999.0,-999.0,103,0.00,,,0.00,tws,2013-09-13 08:19:00,
2013-09-13 04:24:00,62.8,63.7,29.64,North,-999,-999.0,-999.0,103,0.00,,,0.00,tws,2013-09-13 08:24:00,
2013-09-13 04:29:00,62.6,63.5,29.64,North,-999,-999.0,-999.0,103,0.00,,,0.00,tws,2013-09-13 08:29:00,
2013-09-13 04:34:00,62.5,63.4,29.64,North,-999,-999.0,-999.0,103,0.00,,,0.00,tws,2013-09-13 08:34:00,
2013-09-13 04:39:00,62.3,63.2,29.64,North,-999,-999.0,-999.0,103,0.00,,,0.00,tws,2013-09-13 08:39:00,
2013-09-13 04:44:00,62.2,63.1,29.64,North,-999,-999.0,-999.0,103,0.00,,,0.00,tws,2013-09-13 08:44:00,
2013-09-13 04:49:00,62.1,62.9,29.64,North,-999,-999.0,-999.0,103,0.00,,,0.00,tws,2013-09-13 08:49:00,
2013-09-13 04:54:00,62.0,62.8,29.64,North,-999,-999.0,-999.0,102,0.00,,,0.00,tws,2013-09-13 08:54:00,
2013-09-13 04:59:00,62.0,62.8,29.64,North,-999,-999.0,-999.0,102,0.00,,,0.00,tws,2013-09-13 08:59:00,
2013-09-13 05:04:00,62.0,62.8,29.64,North,-999,-999.0,-999.0,102,0.00,,,0.00,tws,2013-09-13 09:04:00,
2013-09-13 05:09:00,61.9,62.6,29.64,North,-999,-999.0,-999.0,102,0.00,,,0.00,tws,2013-09-13 09:09:00,
2013-09-13 05:14:00,62.1,62.5,29.64,North,-999,-999.0,-999.0,101,0.00,,,0.00,tws,2013-09-13 09:14:00,
2013-09-13 05:19:00,62.2,62.4,29.64,North,-999,-999.0,-999.0,101,0.00,,,0.00,tws,2013-09-13 09:19:00,
2013-09-13 05:24:00,62.2,62.3,29.64,North,-999,-999.0,-999.0,100,0.00,,,0.00,tws,2013-09-13 09:24:00,
2013-09-13 05:29:00,62.3,62.4,29.64,North,-999,-999.0,-999.0,100,0.00,,,0.00,tws,2013-09-13 09:29:00,
2013-09-13 05:34:00,62.4,62.5,29.64,North,-999,-999.0,-999.0,100,0.00,,,0.00,tws,2013-09-13 09:34:00,
2013-09-13 05:39:00,62.3,62.4,29.64,North,-999,-999.0,-999.0,100,0.00,,,0.00,tws,2013-09-13 09:39:00,
2013-09-13 05:44:00,62.2,62.5,29.65,North,-999,-999.0,-999.0,100,0.00,,,0.00,tws,2013-09-13 09:44:00,
2013-09-13 05:49:00,62.2,62.5,29.64,North,-999,-999.0,-999.0,101,0.00,,,0.00,tws,2013-09-13 09:49:00,
2013-09-13 05:54:00,62.3,62.5,29.64,North,-999,-999.0,-999.0,100,0.00,,,0.00,tws,2013-09-13 09:54:00,
2013-09-13 05:59:00,62.4,62.5,29.64,North,-999,-999.0,-999.0,100,0.00,,,0.00,tws,2013-09-13 09:59:00,
2013-09-13 06:04:00,62.4,62.5,29.64,North,-999,-999.0,-999.0,100,0.00,,,0.00,tws,2013-09-13 10:04:00,
2013-09-13 06:09:00,62.2,62.5,29.65,North,-999,-999.0,-999.0,100,0.00,,,0.00,tws,2013-09-13 10:09:00,
2013-09-13 06:14:00,62.1,62.3,29.65,North,-999,-999.0,-999.0,100,0.00,,,0.00,tws,2013-09-13 10:14:00,
2013-09-13 06:19:00,61.9,62.2,29.66,North,-999,-999.0,-999.0,101,0.00,,,0.00,tws,2013-09-13 10:19:00,
2013-09-13 06:24:00,61.9,62.2,29.66,North,-999,-999.0,-999.0,101,0.00,,,0.00,tws,2013-09-13 10:24:00,
2013-09-13 06:29:00,61.8,62.1,29.66,North,-999,-999.0,-999.0,101,0.00,,,0.00,tws,2013-09-13 10:29:00,
2013-09-13 06:34:00,61.6,61.9,29.66,North,-999,-999.0,-999.0,101,0.00,,,0.00,tws,2013-09-13 10:34:00,
2013-09-13 06:39:00,61.4,61.7,29.66,North,-999,-999.0,-999.0,101,0.00,,,0.00,tws,2013-09-13 10:39:00,
2013-09-13 06:44:00,61.2,61.5,29.66,North,-999,-999.0,-999.0,101,0.00,,,0.00,tws,2013-09-13 10:44:00,
2013-09-13 06:49:00,61.0,61.4,29.66,North,-999,-999.0,-999.0,101,0.00,,,0.00,tws,2013-09-13 10:49:00,
2013-09-13 06:54:00,60.7,61.1,29.66,North,-999,-999.0,-999.0,101,0.00,,,0.00,tws,2013-09-13 10:54:00,
2013-09-13 06:59:00,60.4,60.9,29.66,North,-999,-999.0,-999.0,101,0.00,,,0.00,tws,2013-09-13 10:59:00,
2013-09-13 07:04:00,60.2,60.6,29.66,North,-999,-999.0,-999.0,101,0.00,,,0.00,tws,2013-09-13 11:04:00,
2013-09-13 07:09:00,60.0,60.5,29.66,North,-999,-999.0,-999.0,101,0.00,,,0.00,tws,2013-09-13 11:09:00,
2013-09-13 07:14:00,59.8,60.3,29.66,North,-999,-999.0,-999.0,101,0.00,,,0.00,tws,2013-09-13 11:14:00,
2013-09-13 07:19:00,59.7,60.2,29.66,North,-999,-999.0,-999.0,101,0.00,,,0.00,tws,2013-09-13 11:19:00,
2013-09-13 07:24:00,59.7,60.2,29.67,North,-999,-999.0,-999.0,102,0.00,,,0.00,tws,2013-09-13 11:24:00,
2013-09-13 07:29:00,59.6,60.2,29.67,North,-999,-999.0,-999.0,102,0.00,,,0.00,tws,2013-09-13 11:29:00,
2013-09-13 07:34:00,59.5,60.2,29.67,North,-999,-999.0,-999.0,102,0.00,,,0.00,tws,2013-09-13 11:34:00,
2013-09-13 07:39:00,59.4,60.0,29.67,North,-999,-999.0,-999.0,102,0.00,,,0.00,tws,2013-09-13 11:39:00,
2013-09-13 07:44:00,59.5,60.2,29.67,North,-999,-999.0,-999.0,102,0.00,,,0.00,tws,2013-09-13 11:44:00,
2013-09-13 07:49:00,59.6,60.3,29.67,North,-999,-999.0,-999.0,102,0.00,,,0.00,tws,2013-09-13 11:49:00,
2013-09-13 07:54:00,59.7,60.5,29.67,North,-999,-999.0,-999.0,102,0.00,,,0.00,tws,2013-09-13 11:54:00,
2013-09-13 07:59:00,59.9,60.7,29.67,North,-999,-999.0,-999.0,102,0.00,,,0.00,tws,2013-09-13 11:59:00,
2013-09-13 08:04:00,60.2,60.9,29.67,North,-999,-999.0,-999.0,102,0.00,,,0.00,tws,2013-09-13 12:04:00,
2013-09-13 08:09:00,60.8,61.5,29.67,North,-999,-999.0,-999.0,102,0.00,,,0.00,tws,2013-09-13 12:09:00,
2013-09-13 08:14:00,61.3,61.9,29.67,North,-999,-999.0,-999.0,102,0.00,,,0.00,tws,2013-09-13 12:14:00,
2013-09-13 08:19:00,61.7,62.3,29.67,North,-999,-999.0,-999.0,102,0.00,,,0.00,tws,2013-09-13 12:19:00,
2013-09-13 08:24:00,62.0,62.6,29.67,North,-999,-999.0,-999.0,102,0.00,,,0.00,tws,2013-09-13 12:24:00,
2013-09-13 08:29:00,62.4,62.6,29.67,North,-999,-999.0,-999.0,100,0.00,,,0.00,tws,2013-09-13 12:29:00,
2013-09-13 08:34:00,62.8,62.4,29.67,North,-999,-999.0,-999.0,98,0.00,,,0.00,tws,2013-09-13 12:34:00,
2013-09-13 08:39:00,63.1,62.5,29.67,North,-999,-999.0,-999.0,97,0.00,,,0.00,tws,2013-09-13 12:39:00,
2013-09-13 08:44:00,63.3,62.7,29.67,North,-999,-999.0,-999.0,97,0.00,,,0.00,tws,2013-09-13 12:44:00,
2013-09-13 08:49:00,63.5,62.9,29.67,North,-999,-999.0,-999.0,97,0.00,,,0.00,tws,2013-09-13 12:49:00,
2013-09-13 08:54:00,64.0,62.8,29.67,North,-999,-999.0,-999.0,96,0.00,,,0.00,tws,2013-09-13 12:54:00,
2013-09-13 08:59:00,64.5,62.6,29.67,North,-999,-999.0,-999.0,93,0.00,,,0.00,tws,2013-09-13 12:59:00,
2013-09-13 09:04:00,65.0,62.9,29.67,North,-999,-999.0,-999.0,92,0.00,,,0.00,tws,2013-09-13 13:04:00,
2013-09-13 09:09:00,65.4,62.6,29.66,North,-999,-999.0,-999.0,90,0.00,,,0.00,tws,2013-09-13 13:09:00,
2013-09-13 09:14:00,65.7,61.5,29.66,North,-999,-999.0,-999.0,86,0.00,,,0.00,tws,2013-09-13 13:14:00,
2013-09-13 09:19:00,66.0,62.2,29.66,North,-999,-999.0,-999.0,87,0.00,,,0.00,tws,2013-09-13 13:19:00,
2013-09-13 09:24:00,66.2,62.3,29.66,North,-999,-999.0,-999.0,87,0.00,,,0.00,tws,2013-09-13 13:24:00,
2013-09-13 09:29:00,66.5,62.9,29.66,North,-999,-999.0,-999.0,88,0.00,,,0.00,tws,2013-09-13 13:29:00,
2013-09-13 09:34:00,66.7,62.6,29.67,North,-999,-999.0,-999.0,86,0.00,,,0.00,tws,2013-09-13 13:34:00,
2013-09-13 09:39:00,67.0,63.3,29.66,North,-999,-999.0,-999.0,87,0.00,,,0.00,tws,2013-09-13 13:39:00,
2013-09-13 09:44:00,67.3,62.5,29.67,North,-999,-999.0,-999.0,84,0.00,,,0.00,tws,2013-09-13 13:44:00,
2013-09-13 09:49:00,67.5,61.4,29.67,North,-999,-999.0,-999.0,80,0.00,,,0.00,tws,2013-09-13 13:49:00,
2013-09-13 09:54:00,67.8,61.8,29.67,North,-999,-999.0,-999.0,81,0.00,,,0.00,tws,2013-09-13 13:54:00,
2013-09-13 09:59:00,68.1,61.9,29.67,North,-999,-999.0,-999.0,80,0.00,,,0.00,tws,2013-09-13 13:59:00,
2013-09-13 10:04:00,68.4,61.5,29.67,North,-999,-999.0,-999.0,78,0.00,,,0.00,tws,2013-09-13 14:04:00,
2013-09-13 10:09:00,68.6,61.7,29.67,North,-999,-999.0,-999.0,78,0.00,,,0.00,tws,2013-09-13 14:09:00,
2013-09-13 10:14:00,68.7,60.8,29.67,North,-999,-999.0,-999.0,75,0.00,,,0.00,tws,2013-09-13 14:14:00,
2013-09-13 10:19:00,68.9,60.5,29.67,North,-999,-999.0,-999.0,74,0.00,,,0.00,tws,2013-09-13 14:19:00,
2013-09-13 10:24:00,69.1,60.6,29.67,North,-999,-999.0,-999.0,74,0.00,,,0.00,tws,2013-09-13 14:24:00,
2013-09-13 10:29:00,69.2,61.4,29.67,North,-999,-999.0,-999.0,75,0.00,,,0.00,tws,2013-09-13 14:29:00,
2013-09-13 10:34:00,69.4,61.0,29.67,North,-999,-999.0,-999.0,74,0.00,,,0.00,tws,2013-09-13 14:34:00,
2013-09-13 10:39:00,69.4,60.2,29.67,North,-999,-999.0,-999.0,72,0.00,,,0.00,tws,2013-09-13 14:39:00,
2013-09-13 10:44:00,69.4,60.4,29.67,North,-999,-999.0,-999.0,72,0.00,,,0.00,tws,2013-09-13 14:44:00,
2013-09-13 10:49:00,69.6,60.5,29.67,North,-999,-999.0,-999.0,72,0.00,,,0.00,tws,2013-09-13 14:49:00,
2013-09-13 10:54:00,69.8,60.8,29.67,North,-999,-999.0,-999.0,72,0.00,,,0.00,tws,2013-09-13 14:54:00,
2013-09-13 10:59:00,70.1,59.9,29.67,North,-999,-999.0,-999.0,69,0.00,,,0.00,tws,2013-09-13 14:59:00,
2013-09-13 11:04:00,70.5,60.2,29.67,North,-999,-999.0,-999.0,69,0.00,,,0.00,tws,2013-09-13 15:04:00,
2013-09-13 11:09:00,70.8,59.9,29.67,North,-999,-999.0,-999.0,68,0.00,,,0.00,tws,2013-09-13 15:09:00,
2013-09-13 11:14:00,70.8,59.9,29.67,North,-999,-999.0,-999.0,67,0.00,,,0.00,tws,2013-09-13 15:14:00,
2013-09-13 11:19:00,71.0,60.2,29.67,North,-999,-999.0,-999.0,68,0.00,,,0.00,tws,2013-09-13 15:19:00,
2013-09-13 11:24:00,71.1,60.2,29.67,North,-999,-999.0,-999.0,68,0.00,,,0.00,tws,2013-09-13 15:24:00,
2013-09-13 11:29:00,71.0,59.8,29.67,North,-999,-999.0,-999.0,67,0.00,,,0.00,tws,2013-09-13 15:29:00,
2013-09-13 11:34:00,71.2,60.6,29.67,North,-999,-999.0,-999.0,68,0.00,,,0.00,tws,2013-09-13 15:34:00,
2013-09-13 11:39:00,71.4,59.9,29.67,North,-999,-999.0,-999.0,66,0.00,,,0.00,tws,2013-09-13 15:39:00,
2013-09-13 11:44:00,71.6,59.7,29.67,North,-999,-999.0,-999.0,65,0.00,,,0.00,tws,2013-09-13 15:44:00,
2013-09-13 11:49:00,71.6,59.4,29.67,North,-999,-999.0,-999.0,65,0.00,,,0.00,tws,2013-09-13 15:49:00,
2013-09-13 11:54:00,71.5,59.1,29.67,North,-999,-999.0,-999.0,64,0.00,,,0.00,tws,2013-09-13 15:54:00,
2013-09-13 11:59:00,71.3,59.8,29.67,North,-999,-999.0,-999.0,66,0.00,,,0.00,tws,2013-09-13 15:59:00,
2013-09-13 12:04:00,71.4,59.2,29.67,North,-999,-999.0,-999.0,65,0.00,,,0.00,tws,2013-09-13 16:04:00,
2013-09-13 12:09:00,71.4,59.2,29.67,North,-999,-999.0,-999.0,64,0.00,,,0.00,tws,2013-09-13 16:09:00,
2013-09-13 12:14:00,71.2,58.9,29.67,North,-999,-999.0,-999.0,64,0.00,,,0.00,tws,2013-09-13 16:14:00,
2013-09-13 12:19:00,71.2,59.1,29.67,North,-999,-999.0,-999.0,65,0.00,,,0.00,tws,2013-09-13 16:19:00,
2013-09-13 12:24:00,71.5,58.6,29.67,North,-999,-999.0,-999.0,63,0.00,,,0.00,tws,2013-09-13 16:24:00,
2013-09-13 12:29:00,72.0,58.6,29.67,North,-999,-999.0,-999.0,62,0.00,,,0.00,tws,2013-09-13 16:29:00,
2013-09-13 12:34:00,72.4,58.4,29.67,North,-999,-999.0,-999.0,60,0.00,,,0.00,tws,2013-09-13 16:34:00,
2013-09-13 12:39:00,72.1,56.9,29.67,North,-999,-999.0,-999.0,58,0.00,,,0.00,tws,2013-09-13 16:39:00,
2013-09-13 12:44:00,71.5,56.9,29.67,North,-999,-999.0,-999.0,59,0.00,,,0.00,tws,2013-09-13 16:44:00,
2013-09-13 12:49:00,71.0,57.7,29.67,North,-999,-999.0,-999.0,62,0.00,,,0.00,tws,2013-09-13 16:49:00,
2013-09-13 12:54:00,71.1,58.7,29.67,North,-999,-999.0,-999.0,64,0.00,,,0.00,tws,2013-09-13 16:54:00,
2013-09-13 12:59:00,71.8,57.9,29.67,North,-999,-999.0,-999.0,61,0.00,,,0.00,tws,2013-09-13 16:59:00,
2013-09-13 13:04:00,72.2,58.5,29.67,North,-999,-999.0,-999.0,61,99.99,,,99.99,tws,2013-09-13 17:04:00,
2013-09-13 13:09:00,72.3,57.8,29.67,North,-999,-999.0,-999.0,59,-99.99,,,0.00,tws,2013-09-13 17:09:00,
2013-09-13 13:14:00,72.3,58.2,29.67,North,-999,-999.0,-999.0,60,0.00,,,0.00,tws,2013-09-13 17:14:00,
2013-09-13 13:19:00,72.2,58.8,29.67,North,-999,-999.0,-999.0,62,0.00,,,0.00,tws,2013-09-13 17:19:00,
2013-09-13 13:24:00,72.2,58.8,29.67,North,-999,-999.0,-999.0,62,0.00,,,0.00,tws,2013-09-13 17:24:00,
2013-09-13 13:29:00,72.5,58.2,29.66,North,-999,-999.0,-999.0,60,0.00,,,0.00,tws,2013-09-13 17:29:00,
2013-09-13 13:34:00,73.1,58.3,29.66,North,-999,-999.0,-999.0,59,0.00,,,0.00,tws,2013-09-13 17:34:00,
2013-09-13 13:39:00,73.7,58.9,29.66,North,-999,-999.0,-999.0,59,0.00,,,0.00,tws,2013-09-13 17:39:00,
2013-09-13 13:44:00,74.1,57.8,29.66,North,-999,-999.0,-999.0,56,0.00,,,0.00,tws,2013-09-13 17:44:00,
2013-09-13 13:49:00,74.4,58.4,29.66,North,-999,-999.0,-999.0,56,0.00,,,0.00,tws,2013-09-13 17:49:00,
2013-09-13 13:54:00,74.5,57.4,29.66,North,-999,-999.0,-999.0,54,0.00,,,0.00,tws,2013-09-13 17:54:00,
2013-09-13 13:59:00,74.5,58.0,29.66,North,-999,-999.0,-999.0,55,0.00,,,0.00,tws,2013-09-13 17:59:00,
2013-09-13 14:04:00,74.7,56.9,29.66,North,-999,-999.0,-999.0,53,0.00,,,0.00,tws,2013-09-13 18:04:00,
2013-09-13 14:09:00,74.9,57.7,29.66,North,-999,-999.0,-999.0,54,0.00,,,0.00,tws,2013-09-13 18:09:00,
2013-09-13 14:14:00,75.0,57.4,29.66,North,-999,-999.0,-999.0,53,0.00,,,0.00,tws,2013-09-13 18:14:00,
2013-09-13 14:19:00,74.6,57.2,29.66,North,-999,-999.0,-999.0,54,0.00,,,0.00,tws,2013-09-13 18:19:00,
2013-09-13 14:24:00,74.2,58.1,29.66,North,-999,-999.0,-999.0,56,0.00,,,0.00,tws,2013-09-13 18:24:00,
2013-09-13 14:29:00,74.1,56.4,29.65,North,-999,-999.0,-999.0,53,0.00,,,0.00,tws,2013-09-13 18:29:00,
2013-09-13 14:34:00,74.0,55.7,29.65,North,-999,-999.0,-999.0,52,0.00,,,0.00,tws,2013-09-13 18:34:00,
2013-09-13 14:39:00,74.1,55.8,29.65,North,-999,-999.0,-999.0,52,0.00,,,0.00,tws,2013-09-13 18:39:00,
2013-09-13 14:44:00,74.0,55.3,29.65,North,-999,-999.0,-999.0,51,0.00,,,0.00,tws,2013-09-13 18:44:00,
2013-09-13 14:49:00,73.9,56.2,29.64,North,-999,-999.0,-999.0,53,0.00,,,0.00,tws,2013-09-13 18:49:00,
2013-09-13 14:54:00,74.1,56.5,29.64,North,-999,-999.0,-999.0,53,0.00,,,0.00,tws,2013-09-13 18:54:00,
2013-09-13 14:59:00,74.2,56.9,29.64,North,-999,-999.0,-999.0,54,0.00,,,0.00,tws,2013-09-13 18:59:00,
2013-09-13 15:04:00,73.7,56.8,29.64,North,-999,-999.0,-999.0,55,0.00,,,0.00,tws,2013-09-13 19:04:00,
2013-09-13 15:09:00,73.6,55.6,29.64,North,-999,-999.0,-999.0,53,0.00,,,0.00,tws,2013-09-13 19:09:00,
2013-09-13 15:14:00,73.0,55.2,29.64,North,-999,-999.0,-999.0,53,0.00,,,0.00,tws,2013-09-13 19:14:00,
2013-09-13 15:19:00,72.9,55.2,29.64,North,-999,-999.0,-999.0,53,0.00,,,0.00,tws,2013-09-13 19:19:00,
2013-09-13 15:24:00,73.3,54.4,29.64,North,-999,-999.0,-999.0,50,0.00,,,0.00,tws,2013-09-13 19:24:00,
2013-09-13 15:29:00,73.6,55.3,29.64,North,-999,-999.0,-999.0,52,0.00,,,0.00,tws,2013-09-13 19:29:00,
2013-09-13 15:34:00,73.1,54.8,29.64,North,-999,-999.0,-999.0,52,0.00,,,0.00,tws,2013-09-13 19:34:00,
2013-09-13 15:39:00,72.5,54.8,29.64,North,-999,-999.0,-999.0,53,0.00,,,0.00,tws,2013-09-13 19:39:00,
2013-09-13 15:44:00,72.4,55.3,29.64,North,-999,-999.0,-999.0,54,0.00,,,0.00,tws,2013-09-13 19:44:00,
2013-09-13 15:49:00,71.9,54.0,29.64,North,-999,-999.0,-999.0,52,0.00,,,0.00,tws,2013-09-13 19:49:00,
2013-09-13 15:54:00,71.4,55.2,29.64,North,-999,-999.0,-999.0,56,0.00,,,0.00,tws,2013-09-13 19:54:00,
2013-09-13 15:59:00,71.2,55.9,29.64,North,-999,-999.0,-999.0,58,0.00,,,0.00,tws,2013-09-13 19:59:00,
2013-09-13 16:04:00,71.2,55.8,29.64,North,-999,-999.0,-999.0,57,0.00,,,0.00,tws,2013-09-13 20:04:00,
2013-09-13 16:09:00,71.5,55.5,29.64,North,-999,-999.0,-999.0,56,0.00,,,0.00,tws,2013-09-13 20:09:00,
2013-09-13 16:14:00,71.5,55.1,29.64,North,-999,-999.0,-999.0,55,0.00,,,0.00,tws,2013-09-13 20:14:00,
2013-09-13 16:19:00,71.3,55.1,29.64,North,-999,-999.0,-999.0,56,0.00,,,0.00,tws,2013-09-13 20:19:00,
2013-09-13 16:24:00,71.4,54.9,29.64,North,-999,-999.0,-999.0,55,0.00,,,0.00,tws,2013-09-13 20:24:00,
2013-09-13 16:29:00,72.0,55.0,29.64,North,-999,-999.0,-999.0,54,0.00,,,0.00,tws,2013-09-13 20:29:00,
2013-09-13 16:34:00,72.5,55.8,29.64,North,-999,-999.0,-999.0,55,0.00,,,0.00,tws,2013-09-13 20:34:00,
2013-09-13 16:39:00,73.0,56.5,29.64,North,-999,-999.0,-999.0,55,0.00,,,0.00,tws,2013-09-13 20:39:00,
2013-09-13 16:44:00,73.1,56.7,29.64,North,-999,-999.0,-999.0,55,0.00,,,0.00,tws,2013-09-13 20:44:00,
2013-09-13 16:49:00,73.2,56.3,29.65,North,-999,-999.0,-999.0,54,0.00,,,0.00,tws,2013-09-13 20:49:00,
2013-09-13 16:54:00,73.0,54.8,29.64,North,-999,-999.0,-999.0,52,0.00,,,0.00,tws,2013-09-13 20:54:00,
2013-09-13 16:59:00,72.7,53.4,29.65,North,-999,-999.0,-999.0,50,0.00,,,0.00,tws,2013-09-13 20:59:00,
2013-09-13 17:04:00,72.7,54.4,29.64,North,-999,-999.0,-999.0,52,0.00,,,0.00,tws,2013-09-13 21:04:00,
2013-09-13 17:09:00,72.6,54.2,29.65,North,-999,-999.0,-999.0,52,0.00,,,0.00,tws,2013-09-13 21:09:00,
2013-09-13 17:14:00,72.5,54.7,29.65,North,-999,-999.0,-999.0,53,0.00,,,0.00,tws,2013-09-13 21:14:00,
2013-09-13 17:19:00,72.4,54.8,29.65,North,-999,-999.0,-999.0,53,0.00,,,0.00,tws,2013-09-13 21:19:00,
2013-09-13 17:24:00,72.3,55.0,29.65,North,-999,-999.0,-999.0,54,0.00,,,0.00,tws,2013-09-13 21:24:00,
2013-09-13 17:29:00,72.1,55.1,29.64,North,-999,-999.0,-999.0,54,0.00,,,0.00,tws,2013-09-13 21:29:00,
2013-09-13 17:34:00,71.6,54.9,29.65,North,-999,-999.0,-999.0,55,0.00,,,0.00,tws,2013-09-13 21:34:00,
2013-09-13 17:39:00,71.1,54.5,29.65,North,-999,-999.0,-999.0,55,0.00,,,0.00,tws,2013-09-13 21:39:00,
2013-09-13 17:44:00,70.7,53.4,29.65,North,-999,-999.0,-999.0,53,0.00,,,0.00,tws,2013-09-13 21:44:00,
2013-09-13 17:49:00,70.6,53.8,29.65,North,-999,-999.0,-999.0,54,0.00,,,0.00,tws,2013-09-13 21:49:00,
2013-09-13 17:59:00,70.2,53.4,29.64,North,-999,-999.0,-999.0,54,0.00,,,0.00,tws,2013-09-13 21:59:00,
2013-09-13 18:04:00,70.0,53.5,29.64,North,-999,-999.0,-999.0,55,0.00,,,0.00,tws,2013-09-13 22:04:00,
2013-09-13 18:09:00,69.9,53.6,29.64,North,-999,-999.0,-999.0,55,0.00,,,0.00,tws,2013-09-13 22:09:00,
2013-09-13 18:14:00,69.7,53.9,29.65,North,-999,-999.0,-999.0,56,0.00,,,0.00,tws,2013-09-13 22:14:00,
2013-09-13 18:19:00,69.6,53.6,29.65,North,-999,-999.0,-999.0,56,0.00,,,0.00,tws,2013-09-13 22:19:00,
2013-09-13 18:24:00,69.3,53.2,29.65,North,-999,-999.0,-999.0,56,0.00,,,0.00,tws,2013-09-13 22:24:00,
2013-09-13 18:29:00,69.0,53.2,29.66,North,-999,-999.0,-999.0,56,0.00,,,0.00,tws,2013-09-13 22:29:00,
2013-09-13 18:34:00,68.7,52.9,29.66,North,-999,-999.0,-999.0,56,0.00,,,0.00,tws,2013-09-13 22:34:00,
2013-09-13 18:39:00,68.5,53.1,29.66,North,-999,-999.0,-999.0,57,0.00,,,0.00,tws,2013-09-13 22:39:00,
2013-09-13 18:44:00,68.4,53.7,29.66,North,-999,-999.0,-999.0,58,0.00,,,0.00,tws,2013-09-13 22:44:00,
2013-09-13 18:49:00,68.2,53.7,29.66,North,-999,-999.0,-999.0,59,0.00,,,0.00,tws,2013-09-13 22:49:00,
2013-09-13 18:54:00,67.9,53.8,29.66,North,-999,-999.0,-999.0,60,0.00,,,0.00,tws,2013-09-13 22:54:00,
2013-09-13 18:59:00,67.6,53.3,29.66,North,-999,-999.0,-999.0,59,0.00,,,0.00,tws,2013-09-13 22:59:00,
2013-09-13 19:04:00,67.4,53.9,29.66,North,-999,-999.0,-999.0,61,0.00,,,0.00,tws,2013-09-13 23:04:00,
2013-09-13 19:09:00,67.1,54.2,29.66,North,-999,-999.0,-999.0,62,0.00,,,0.00,tws,2013-09-13 23:09:00,
2013-09-13 19:14:00,66.9,54.5,29.67,North,-999,-999.0,-999.0,64,0.00,,,0.00,tws,2013-09-13 23:14:00,
2013-09-13 19:19:00,66.5,54.7,29.67,North,-999,-999.0,-999.0,65,0.00,,,0.00,tws,2013-09-13 23:19:00,
2013-09-13 19:24:00,66.1,54.4,29.67,North,-999,-999.0,-999.0,65,0.00,,,0.00,tws,2013-09-13 23:24:00,
2013-09-13 19:29:00,65.7,53.7,29.67,North,-999,-999.0,-999.0,64,0.00,,,0.00,tws,2013-09-13 23:29:00,
2013-09-13 19:34:00,65.2,52.9,29.67,North,-999,-999.0,-999.0,63,0.00,,,0.00,tws,2013-09-13 23:34:00,
2013-09-13 19:39:00,64.8,52.5,29.67,North,-999,-999.0,-999.0,64,0.00,,,0.00,tws,2013-09-13 23:39:00,
2013-09-13 19:44:00,64.6,52.5,29.67,North,-999,-999.0,-999.0,64,0.00,,,0.00,tws,2013-09-13 23:44:00,
2013-09-13 19:49:00,64.3,52.4,29.67,North,-999,-999.0,-999.0,64,0.00,,,0.00,tws,2013-09-13 23:49:00,
2013-09-13 19:54:00,64.1,53.2,29.67,North,-999,-999.0,-999.0,67,0.00,,,0.00,tws,2013-09-13 23:54:00,
2013-09-13 19:59:00,63.8,52.5,29.67,North,-999,-999.0,-999.0,66,0.00,,,0.00,tws,2013-09-13 23:59:00,
2013-09-13 20:04:00,63.7,53.7,29.67,North,-999,-999.0,-999.0,69,0.00,,,0.00,tws,2013-09-14 00:04:00,
2013-09-13 20:09:00,63.4,53.8,29.67,North,-999,-999.0,-999.0,70,0.00,,,0.00,tws,2013-09-14 00:09:00,
2013-09-13 20:14:00,63.1,53.0,29.67,North,-999,-999.0,-999.0,69,0.00,,,0.00,tws,2013-09-14 00:14:00,
2013-09-13 20:19:00,63.0,53.0,29.67,North,-999,-999.0,-999.0,69,0.00,,,0.00,tws,2013-09-14 00:19:00,
2013-09-13 20:24:00,62.9,53.1,29.67,North,-999,-999.0,-999.0,70,0.00,,,0.00,tws,2013-09-14 00:24:00,
2013-09-13 20:29:00,62.8,52.6,29.67,North,-999,-999.0,-999.0,68,0.00,,,0.00,tws,2013-09-14 00:29:00,
2013-09-13 20:34:00,62.9,52.3,29.67,North,-999,-999.0,-999.0,67,0.00,,,0.00,tws,2013-09-14 00:34:00,
2013-09-13 20:39:00,63.0,52.6,29.67,North,-999,-999.0,-999.0,68,0.00,,,0.00,tws,2013-09-14 00:39:00,
2013-09-13 20:44:00,62.9,52.6,29.67,North,-999,-999.0,-999.0,68,0.00,,,0.00,tws,2013-09-14 00:44:00,
2013-09-13 20:49:00,62.7,52.2,29.68,North,-999,-999.0,-999.0,68,0.00,,,0.00,tws,2013-09-14 00:49:00,
2013-09-13 20:54:00,62.6,51.2,29.68,North,-999,-999.0,-999.0,66,0.00,,,0.00,tws,2013-09-14 00:54:00,
2013-09-13 20:59:00,62.5,51.3,29.68,North,-999,-999.0,-999.0,66,0.00,,,0.00,tws,2013-09-14 00:59:00,
2013-09-13 21:04:00,62.4,51.3,29.69,North,-999,-999.0,-999.0,66,0.00,,,0.00,tws,2013-09-14 01:04:00,
2013-09-13 21:09:00,62.3,50.9,29.69,North,-999,-999.0,-999.0,65,0.00,,,0.00,tws,2013-09-14 01:09:00,
2013-09-13 21:14:00,62.3,50.5,29.69,North,-999,-999.0,-999.0,65,0.00,,,0.00,tws,2013-09-14 01:14:00,
2013-09-13 21:19:00,62.2,50.0,29.69,North,-999,-999.0,-999.0,63,0.00,,,0.00,tws,2013-09-14 01:19:00,
2013-09-13 21:24:00,62.3,50.1,29.69,North,-999,-999.0,-999.0,64,0.00,,,0.00,tws,2013-09-14 01:24:00,
2013-09-13 21:29:00,62.2,50.6,29.69,North,-999,-999.0,-999.0,65,0.00,,,0.00,tws,2013-09-14 01:29:00,
2013-09-13 21:34:00,62.1,51.3,29.69,North,-999,-999.0,-999.0,67,0.00,,,0.00,tws,2013-09-14 01:34:00,
2013-09-13 21:39:00,61.9,51.7,29.69,North,-999,-999.0,-999.0,68,0.00,,,0.00,tws,2013-09-14 01:39:00,
2013-09-13 21:44:00,61.8,51.8,29.69,North,-999,-999.0,-999.0,69,0.00,,,0.00,tws,2013-09-14 01:44:00,
2013-09-13 21:49:00,61.5,51.8,29.70,North,-999,-999.0,-999.0,70,0.00,,,0.00,tws,2013-09-14 01:49:00,
2013-09-13 21:54:00,61.3,52.0,29.70,North,-999,-999.0,-999.0,71,0.00,,,0.00,tws,2013-09-14 01:54:00,
2013-09-13 21:59:00,61.0,52.0,29.70,North,-999,-999.0,-999.0,71,0.00,,,0.00,tws,2013-09-14 01:59:00,
2013-09-13 22:04:00,60.7,51.6,29.70,North,-999,-999.0,-999.0,71,0.00,,,0.00,tws,2013-09-14 02:04:00,
2013-09-13 22:09:00,60.4,51.6,29.70,North,-999,-999.0,-999.0,72,0.00,,,0.00,tws,2013-09-14 02:09:00,
2013-09-13 22:14:00,60.3,51.7,29.70,North,-999,-999.0,-999.0,73,0.00,,,0.00,tws,2013-09-14 02:14:00,
2013-09-13 22:19:00,60.2,51.6,29.70,North,-999,-999.0,-999.0,73,0.00,,,0.00,tws,2013-09-14 02:19:00,
2013-09-13 22:24:00,60.1,51.1,29.70,North,-999,-999.0,-999.0,71,0.00,,,0.00,tws,2013-09-14 02:24:00,
2013-09-13 22:29:00,60.0,50.9,29.70,North,-999,-999.0,-999.0,71,0.00,,,0.00,tws,2013-09-14 02:29:00,
2013-09-13 22:35:00,60.1,51.3,29.70,North,-999,-999.0,-999.0,72,0.00,,,0.00,tws,2013-09-14 02:35:00,
2013-09-13 22:44:00,59.9,51.4,29.70,North,-999,-999.0,-999.0,73,0.00,,,0.00,tws,2013-09-14 02:44:00,
2013-09-13 22:49:00,59.7,51.5,29.70,North,-999,-999.0,-999.0,73,0.00,,,0.00,tws,2013-09-14 02:49:00,
2013-09-13 22:54:00,59.5,51.2,29.70,North,-999,-999.0,-999.0,73,0.00,,,0.00,tws,2013-09-14 02:54:00,
2013-09-13 22:59:00,59.3,51.4,29.70,North,-999,-999.0,-999.0,75,0.00,,,0.00,tws,2013-09-14 02:59:00,
2013-09-13 23:04:00,59.1,51.4,29.70,North,-999,-999.0,-999.0,75,0.00,,,0.00,tws,2013-09-14 03:04:00,
2013-09-13 23:09:00,58.8,50.8,29.70,North,-999,-999.0,-999.0,74,0.00,,,0.00,tws,2013-09-14 03:09:00,
2013-09-13 23:14:00,58.5,50.4,29.70,North,-999,-999.0,-999.0,74,0.00,,,0.00,tws,2013-09-14 03:14:00,
2013-09-13 23:19:00,58.4,50.8,29.70,North,-999,-999.0,-999.0,75,0.00,,,0.00,tws,2013-09-14 03:19:00,
2013-09-13 23:24:00,58.4,51.2,29.70,North,-999,-999.0,-999.0,76,0.00,,,0.00,tws,2013-09-14 03:24:00,
2013-09-13 23:29:00,58.3,51.3,29.70,North,-999,-999.0,-999.0,77,0.00,,,0.00,tws,2013-09-14 03:29:00,
2013-09-13 23:34:00,58.1,51.5,29.70,North,-999,-999.0,-999.0,78,0.00,,,0.00,tws,2013-09-14 03:34:00,
2013-09-13 23:39:00,57.6,51.3,29.71,North,-999,-999.0,-999.0,79,0.00,,,0.00,tws,2013-09-14 03:39:00,
2013-09-13 23:44:00,57.2,51.3,29.71,North,-999,-999.0,-999.0,80,0.00,,,0.00,tws,2013-09-14 03:44:00,
2013-09-13 23:49:00,57.2,51.7,29.71,North,-999,-999.0,-999.0,81,0.00,,,0.00,tws,2013-09-14 03:49:00,
2013-09-13 23:54:00,57.1,51.8,29.71,North,-999,-999.0,-999.0,82,0.00,,,0.00,tws,2013-09-14 03:54:00,
2013-09-13 23:59:00,56.7,51.5,29.71,North,-999,-999.0,-999.0,82,0.00,,,0.00,tws,2013-09-14 03:59:00,